Wind_Speed
31 32 35 36 35 33 30 28 22 14 12 14 16 21 18 13 12 13 12 10 10 13 15 15 15 13 14 16 16 12 9 8 8 11 11 12 15 17 16 17 16 14 11 8 5 3 4 6 6 7 8 8 7 8 8 7 6 7 7 6 6 7 9 10 11 13 16 17 17 18 19 20 21 21 23 24 23 24 24 22 23 23 20 17 19 19
31 35 37 35 32 30 26 25 24 18 14 15 16 19 21 16 11 12 12 10 10 14 13 11 11 12 13 14 12 10 9 8 9 12 13 11 14 17 18 19 18 15 12 9 6 3 2 4 6 7 9 9 9 10 9 9 8 7 7 7 7 8 10 11 12 15 17 18 20 21 20 20 20 20 22 23 23 24 23 22 23 22 19 18 20 19
33 36 35 32 28 26 24 22 23 22 17 17 16 17 20 19 14 11 11 10 9 12 11 10 11 12 12 12 11 10 9 10 10 12 13 13 15 18 20 20 17 16 14 11 8 4 2 3 5 6 8 10 10 10 10 10 9 8 8 8 8 8 10 12 14 16 17 18 22 23 22 22 21 19 21 22 23 24 23 23 24 21 19 19 19 17
35 35 32 30 26 24 25 23 23 24 21 19 18 18 18 18 15 12 11 9 6 7 8 11 14 14 13 13 13 11 10 11 12 12 13 15 17 20 21 19 17 17 15 13 10 7 3 3 5 6 7 8 9 10 11 11 10 10 10 10 9 9 11 12 13 15 16 17 21 24 24 23 22 21 20 22 23 23 23 24 23 20 18 18 16 16
33 32 30 28 25 24 25 26 25 25 23 21 19 19 18 16 14 15 11 6 6 7 9 15 15 13 14 15 15 12 11 12 13 13 13 14 17 19 19 18 17 16 14 12 11 9 6 6 7 8 9 9 10 10 11 11 11 11 11 10 10 9 10 11 12 13 14 16 19 22 24 23 22 22 21 22 23 22 22 24 23 19 18 17 17 17
29 29 30 28 27 26 25 26 28 26 22 22 21 20 18 14 14 16 10 7 13 15 17 19 10 7 13 16 16 13 12 13 13 14 13 13 14 15 15 15 15 14 14 12 11 10 9 9 10 11 11 11 11 11 11 11 11 11 10 10 10 10 10 11 12 12 13 15 18 21 22 22 23 23 23 22 22 22 23 23 21 18 18 18 17 17
27 27 29 28 28 29 26 25 25 25 22 22 23 21 17 13 13 14 11 10 14 15 20 18 8 6 11 15 16 14 12 13 14 14 14 13 13 13 13 14 14 14 14 12 11 11 11 10 12 12 12 12 11 10 9 9 10 11 11 11 11 10 11 13 13 13 14 16 18 20 22 23 24 25 23 22 22 22 23 21 19 18 18 17 17 17
26 25 28 30 30 30 29 27 24 24 22 21 23 22 17 14 13 12 10 9 9 13 17 14 11 12 10 12 17 15 12 14 14 15 15 15 14 13 14 13 14 15 15 14 12 12 11 11 12 12 12 12 10 10 9 10 12 13 12 12 12 11 12 14 15 15 15 16 17 19 20 22 24 22 21 21 22 23 22 20 20 20 19 17 17 17
26 26 28 32 31 30 30 28 24 23 22 21 22 21 18 15 13 11 9 6 7 11 12 13 15 12 6 11 16 14 13 14 14 15 14 14 13 13 13 14 15 16 16 15 13 12 12 12 12 12 12 12 10 10 10 12 13 12 13 13 13 13 13 14 16 16 17 17 18 19 19 20 20 20 20 21 21 22 20 19 19 18 17 16 17 17
27 27 27 29 30 30 27 24 23 22 21 21 20 19 19 16 13 12 10 7 7 8 9 16 19 10 4 11 15 12 13 14 14 14 13 12 12 11 12 13 14 15 15 15 15 15 14 14 14 14 14 12 10 10 11 13 13 13 16 16 15 15 15 16 17 18 18 18 19 19 18 17 16 18 19 20 21 21 17 13 12 13 14 15 16 18
26 27 27 26 25 24 22 22 22 21 21 21 20 18 18 17 14 13 11 8 6 5 8 15 18 11 5 9 14 12 13 14 13 13 13 12 11 10 10 10 11 11 12 13 14 15 16 17 17 16 15 12 10 9 10 13 13 15 19 18 16 16 16 17 18 19 20 20 20 20 19 16 12 15 17 20 20 16 11 10 10 11 14 15 16 17
22 25 27 27 23 19 20 23 24 24 23 21 21 21 17 13 11 10 11 10 6 4 7 12 16 13 6 9 15 14 13 14 13 13 13 12 11 11 9 8 8 8 9 9 11 13 15 16 17 16 15 12 11 10 11 14 16 18 20 20 18 17 17 18 18 19 21 22 21 21 21 17 12 13 16 18 16 11 9 12 13 12 14 15 16 17
18 21 24 24 24 23 21 23 25 25 25 23 23 25 18 8 7 7 6 6 4 3 8 12 14 10 7 14 19 16 13 13 13 13 12 11 11 10 9 9 8 8 8 8 8 9 10 12 12 13 13 12 12 12 13 17 19 20 20 20 19 18 19 20 20 20 21 22 22 21 22 20 16 14 15 16 16 14 14 16 16 15 14 14 16 17
16 17 21 22 23 25 23 25 28 28 29 28 27 28 19 7 5 5 3 2 2 4 8 12 11 9 10 14 18 16 14 13 14 14 12 11 11 10 10 10 9 9 9 8 8 9 9 9 10 10 11 12 13 14 15 18 20 19 19 19 19 20 21 22 22 22 22 22 22 21 22 21 18 17 17 18 18 18 18 19 20 19 17 15 15 16
17 13 20 25 23 26 25 22 27 29 29 30 27 27 23 12 7 4 3 2 3 5 7 8 7 8 11 12 14 15 14 14 15 13 13 12 11 10 10 10 10 10 9 9 9 9 10 10 11 12 12 13 14 15 16 17 19 19 19 19 19 21 22 22 22 23 23 23 23 24 25 23 19 18 21 23 23 23 24 25 24 23 19 16 15 18
19 14 20 26 21 24 25 19 21 25 26 28 26 24 24 18 12 8 5 6 8 7 5 4 4 7 11 12 13 12 12 14 13 12 13 12 11 11 10 9 9 9 9 9 8 9 10 11 12 13 14 15 16 16 16 17 18 19 20 20 20 21 22 22 23 24 25 25 25 26 29 27 22 20 21 25 29 28 28 29 27 23 18 14 14 17
17 13 20 25 19 20 22 18 20 22 23 28 27 23 22 17 14 12 8 7 10 6 3 4 5 9 11 10 12 10 11 14 13 13 13 11 12 11 9 10 10 9 9 9 9 10 11 13 14 14 15 15 16 17 17 17 19 19 20 21 21 22 22 23 24 25 26 27 27 29 30 30 27 24 22 24 29 29 28 29 26 21 15 12 13 16
17 13 19 25 20 20 21 18 18 19 21 28 29 26 23 15 12 12 8 5 4 3 2 4 7 12 10 9 14 13 13 16 15 13 13 11 11 10 10 10 10 9 9 10 10 11 12 14 15 15 15 15 16 17 17 17 18 19 19 20 20 20 20 21 22 25 26 26 27 29 31 31 30 27 24 23 25 27 28 28 23 16 14 13 15 17
20 13 17 25 21 20 21 18 20 20 19 24 29 28 23 15 11 11 8 4 4 3 2 4 6 11 12 13 19 18 16 19 17 14 13 12 11 11 10 10 10 9 9 10 10 11 12 14 13 13 13 13 13 14 14 14 15 16 16 16 16 17 17 18 20 21 23 24 25 27 29 30 30 28 25 23 24 26 26 26 22 16 15 17 18 19
23 12 13 24 24 20 19 18 22 23 18 20 27 29 23 16 14 12 8 6 7 4 3 5 3 9 14 16 19 19 18 19 17 14 13 12 11 10 10 10 9 8 8 9 9 10 11 11 10 9 8 8 8 9 11 12 12 12 13 14 15 16 17 18 19 20 22 24 26 24 24 27 28 26 22 21 22 21 20 22 21 17 16 17 18 17
21 13 12 19 22 21 20 19 20 23 23 24 29 31 24 16 16 14 8 7 9 6 4 5 2 9 17 18 17 18 19 18 16 13 13 11 10 9 10 10 9 8 8 8 9 9 9 9 8 7 7 7 7 9 11 12 12 12 14 15 16 17 18 19 20 21 23 25 26 22 19 22 24 23 20 20 19 16 15 17 17 14 15 16 16 14
14 13 15 18 19 20 20 19 18 20 24 26 28 31 26 18 16 13 6 5 9 8 8 8 3 9 20 21 17 19 20 19 15 12 12 11 9 9 10 9 8 7 8 8 9 9 9 9 8 8 8 8 9 11 12 13 14 14 15 17 18 19 20 21 21 22 22 23 25 22 15 17 19 19 19 20 19 15 14 15 14 13 15 16 15 14
10 11 15 18 17 18 18 18 18 20 23 23 24 27 26 21 18 15 9 8 10 9 10 10 4 7 21 24 21 21 22 20 15 12 12 10 9 10 10 8 7 8 8 9 10 10 9 9 9 9 10 10 11 12 14 15 15 16 17 18 19 20 20 21 20 20 20 19 22 22 12 11 13 16 17 18 19 16 14 14 15 16 17 17 16 15
11 10 16 17 13 13 15 18 21 22 24 23 22 24 25 22 20 17 14 16 16 13 12 9 3 7 21 27 25 23 22 20 16 13 12 10 9 10 9 8 8 8 9 9 9 9 10 10 10 11 11 12 12 13 14 15 15 16 16 17 18 18 19 20 19 19 18 16 17 18 9 3 6 9 11 13 14 14 14 15 16 18 19 18 17 17
13 10 15 15 10 9 11 14 18 21 23 23 21 23 24 23 20 17 15 17 17 16 16 10 3 9 22 29 28 26 23 21 17 14 12 10 8 9 10 10 10 9 9 9 8 9 10 10 10 11 11 11 12 13 13 14 14 14 15 16 16 17 18 19 19 19 19 16 14 13 10 6 3 4 6 9 11 12 14 16 17 19 20 21 20 18
13 12 14 11 7 6 6 8 13 18 20 20 20 22 24 23 20 17 15 16 14 15 18 13 6 13 24 29 30 29 25 22 19 15 13 12 9 9 9 9 9 9 10 10 9 8 9 9 9 9 9 10 11 11 12 12 13 14 15 16 16 17 18 18 18 17 18 17 14 12 10 10 8 7 10 13 14 16 18 19 18 18 20 22 23 21
15 14 14 11 10 10 10 13 17 20 20 19 19 20 22 22 19 16 15 15 14 16 19 16 11 15 24 29 31 30 27 24 22 18 15 13 9 8 8 7 6 8 10 10 9 8 7 7 7 7 8 9 10 10 11 11 12 14 15 17 17 18 18 19 18 17 18 18 17 14 12 10 11 12 15 18 19 20 21 21 21 20 21 23 24 24
18 16 13 11 12 13 15 18 20 20 19 18 18 19 21 21 19 18 15 13 14 14 15 17 15 13 20 27 30 31 29 26 22 18 16 14 10 8 9 9 6 7 8 8 7 7 6 6 6 6 7 9 9 10 11 12 13 14 15 16 17 18 19 19 19 18 19 19 18 18 15 13 12 12 14 16 18 20 21 22 23 22 22 23 25 25
20 18 15 13 14 15 16 18 18 18 18 18 18 19 21 20 19 18 16 14 14 12 11 16 17 14 17 24 27 29 28 24 20 18 17 14 11 11 11 10 8 6 7 7 6 6 6 5 5 6 7 8 9 10 11 12 14 14 14 16 17 18 19 19 19 19 19 20 20 19 18 15 14 13 13 14 15 16 18 21 24 25 24 24 25 24
21 19 17 16 15 16 17 17 15 14 15 17 18 17 18 19 17 17 17 14 14 13 12 13 16 17 18 21 24 25 24 22 21 21 19 14 11 12 11 9 8 6 5 5 5 5 5 4 4 5 7 8 8 9 10 12 13 13 14 14 15 17 18 18 19 19 19 20 20 20 19 18 16 15 15 15 16 16 16 19 23 26 27 27 26 25
20 20 19 18 17 17 17 16 14 12 13 15 16 15 15 16 16 16 16 14 13 14 12 12 15 18 19 20 24 25 24 25 24 22 19 15 14 14 12 9 7 7 5 4 4 4 5 5 4 4 6 7 8 9 10 11 12 13 14 14 15 16 17 18 18 19 19 19 19 20 20 20 19 19 18 18 18 18 18 19 21 23 27 28 28 26
19 20 21 21 17 16 16 15 14 13 13 12 14 15 14 14 14 14 14 14 14 13 13 13 16 19 19 21 24 26 27 27 25 21 19 17 16 15 11 7 6 7 7 8 6 5 7 7 5 5 6 7 8 9 10 11 12 13 14 14 15 16 16 17 17 17 18 18 18 18 19 20 21 22 22 21 20 19 19 19 21 23 25 28 28 28
16 18 23 22 17 16 16 15 16 15 11 8 11 14 14 13 13 12 13 13 13 12 12 13 15 17 18 20 23 25 27 28 25 21 17 15 14 12 9 6 7 8 8 9 8 7 8 8 7 8 9 9 10 10 11 11 12 13 14 14 15 15 15 15 16 16 16 16 16 17 18 19 21 23 25 24 23 21 20 19 19 22 24 25 27 29
12 14 21 21 17 17 18 18 17 12 7 6 10 12 13 14 13 12 13 13 13 13 12 11 12 14 16 19 21 23 23 23 22 19 16 14 11 9 8 7 7 6 6 6 6 6 7 8 7 8 10 11 11 11 11 12 12 13 14 15 16 15 15 15 16 16 16 15 16 16 17 19 20 22 25 27 26 24 22 19 17 19 22 23 25 28
13 15 18 18 17 20 20 17 11 5 5 10 13 12 12 14 13 12 13 13 14 14 13 11 11 14 18 20 21 20 19 18 18 18 16 13 11 9 8 7 7 6 5 6 7 7 8 9 9 9 9 9 9 10 11 11 12 14 15 16 16 16 16 16 17 17 18 17 17 16 17 18 19 21 23 25 27 26 24 21 16 15 19 20 21 25
12 16 18 17 18 18 15 11 5 4 8 13 14 12 12 12 11 10 10 10 12 13 12 11 11 14 17 19 19 19 18 19 18 15 12 12 11 9 7 6 7 7 7 8 8 9 10 11 11 11 11 10 10 10 12 13 14 15 16 16 16 17 17 17 17 18 18 19 19 18 18 18 18 20 21 23 24 24 24 22 18 15 15 17 18 21
10 14 17 18 16 15 13 10 6 6 8 12 13 12 11 10 9 9 7 6 8 10 9 7 10 16 18 18 19 19 18 17 15 11 11 12 10 7 5 6 7 8 8 8 10 11 13 13 13 13 12 11 11 12 14 15 16 16 16 15 16 16 17 17 18 18 19 19 20 20 20 20 20 20 20 21 22 22 22 21 18 16 15 15 16 18
12 12 15 14 13 16 17 11 7 5 6 13 16 14 13 12 10 8 7 7 9 9 7 6 8 15 18 18 18 18 15 13 11 10 11 11 9 7 8 8 8 8 9 11 12 13 13 14 14 14 14 14 13 14 15 17 17 17 16 17 17 18 19 19 19 19 19 20 20 21 21 21 22 22 21 21 21 21 20 18 16 16 15 16 17 18
13 12 14 12 12 18 18 10 5 4 6 12 17 15 13 13 11 8 8 9 12 11 10 10 9 11 13 14 14 13 12 11 11 11 11 11 10 10 9 8 7 9 11 12 13 13 13 14 14 16 16 16 17 17 17 17 17 18 19 20 21 22 22 22 22 21 21 20 20 21 21 21 22 22 21 20 19 20 19 16 12 13 13 13 15 15
13 12 12 11 12 18 17 9 5 5 5 10 16 15 13 11 10 9 7 9 13 13 12 14 13 12 12 13 13 12 10 10 10 11 11 11 11 10 9 7 8 10 12 12 12 12 12 13 15 16 17 18 19 20 20 20 20 21 21 22 23 23 23 22 22 23 22 21 21 20 20 20 20 20 19 19 17 17 17 15 10 9 8 8 11 13
11 10 10 10 12 16 16 9 5 4 6 10 14 15 14 11 10 9 6 8 14 15 14 15 15 13 13 13 11 10 8 8 10 10 10 10 9 8 8 7 9 11 12 12 12 12 13 14 16 18 19 19 19 20 20 20 21 22 23 23 24 23 22 21 21 22 22 21 20 19 19 19 18 17 16 17 16 14 12 11 9 6 5 6 8 11
11 9 9 10 11 13 14 9 5 4 6 10 13 15 15 11 8 7 6 8 13 16 15 15 15 13 12 12 12 11 8 7 8 9 9 8 8 8 8 8 9 11 12 12 13 13 14 15 16 17 19 19 19 19 18 19 21 23 24 24 24 22 20 19 20 20 20 20 19 18 17 16 15 14 12 12 12 11 10 9 8 7 8 8 8 8
11 10 11 12 11 10 11 9 4 4 8 11 13 15 15 11 7 7 7 8 12 16 15 14 15 15 15 13 11 10 9 7 8 9 8 8 9 9 9 9 10 11 11 11 11 11 12 13 14 15 16 17 17 16 16 17 19 20 20 20 20 19 18 18 19 19 19 18 17 16 16 15 13 12 11 9 9 10 10 9 9 10 11 12 11 11
11 10 10 11 10 9 11 9 5 4 8 11 11 14 15 12 8 9 9 7 9 13 14 14 14 15 14 13 11 10 9 9 10 10 10 10 9 8 8 7 7 8 8 7 7 8 9 10 11 12 13 13 13 13 13 14 15 15 15 15 15 15 16 16 17 17 17 17 16 14 14 14 12 10 9 8 9 10 11 11 11 12 13 14 15 14
11 10 10 11 10 9 9 9 6 6 8 10 12 14 16 13 9 9 10 8 7 10 12 12 13 13 13 12 11 11 10 9 9 9 8 7 6 5 4 3 3 4 5 5 6 7 8 9 10 11 12 12 12 12 13 13 13 14 14 14 14 14 14 15 16 16 15 15 15 14 12 12 11 10 10 9 10 11 13 13 13 13 14 14 13 13
11 11 10 9 11 10 8 7 7 7 9 11 13 15 16 14 10 9 10 10 10 10 11 13 13 13 11 10 9 9 8 8 7 6 6 6 5 4 2 1 2 4 5 6 7 8 9 10 10 11 11 11 11 11 12 12 13 14 15 16 16 15 14 15 15 15 15 14 15 14 12 11 10 10 10 10 10 11 12 14 14 14 14 13 12 12
9 10 10 9 10 10 9 9 10 10 11 12 12 14 16 14 10 10 11 12 11 11 12 12 12 11 11 9 8 8 8 8 7 6 6 5 3 2 2 4 5 5 6 6 7 8 9 9 10 10 11 11 12 12 13 13 14 15 15 16 17 16 16 16 16 16 16 16 15 15 14 12 11 10 10 10 10 10 11 13 13 14 14 13 12 12
9 9 9 9 10 10 10 11 12 13 13 12 11 13 15 13 11 12 13 13 12 12 13 13 12 11 11 11 9 8 8 8 7 6 5 3 2 2 2 2 3 4 5 6 6 7 8 9 10 11 12 13 13 14 15 15 16 16 16 16 16 16 16 16 16 16 17 17 17 17 15 13 11 11 11 11 11 10 11 12 12 13 14 14 12 12
8 9 10 10 11 12 12 14 16 17 16 14 12 13 14 12 11 12 14 15 14 14 13 12 12 12 12 11 10 8 7 7 7 6 5 4 3 3 3 4 4 5 6 7 8 8 9 10 11 11 12 13 14 14 15 15 16 16 16 15 15 15 16 16 16 16 16 17 17 18 17 15 13 11 11 11 12 11 11 12 13 14 14 15 14 13
8 9 9 9 11 11 12 15 17 18 17 18 16 15 14 14 13 15 16 16 14 12 9 8 10 12 13 12 11 10 9 9 9 9 8 8 7 7 7 6 6 6 7 7 8 8 9 10 10 11 12 13 14 14 15 15 15 15 15 15 14 14 15 15 15 15 15 16 16 16 17 17 15 13 12 12 12 12 11 11 12 13 13 14 15 14
8 8 7 6 6 7 9 13 16 15 16 19 19 17 17 17 16 16 17 15 14 13 11 8 9 11 13 13 14 14 13 12 11 11 11 10 10 9 8 8 8 8 8 8 8 9 10 11 12 12 13 13 13 14 14 14 14 15 15 15 14 14 14 14 14 14 14 14 14 15 15 16 16 16 14 12 12 12 12 12 12 12 12 12 13 13
Wind_Direction
198 193 194 195 196 196 195 195 192 184 185 187 191 196 193 183 178 175 172 171 175 180 187 196 199 193 194 205 214 219 221 222 217 203 188 180 186 185 165 152 157 165 171 184 189 141 105 101 108 132 136 133 138 149 169 186 197 205 213 228 240 247 254 257 256 255 256 256 255 257 257 256 256 253 247 242 238 239 239 230 228 233 237 242 245 244
197 196 199 199 197 196 195 197 193 187 186 186 186 191 196 197 180 163 173 178 185 195 194 194 196 190 189 193 198 204 210 213 205 190 177 164 173 176 161 156 161 166 173 185 192 181 120 103 108 130 142 142 148 159 171 183 191 202 214 223 226 233 246 253 251 251 254 254 254 256 253 252 257 256 251 246 238 235 232 226 227 233 237 241 243 245
195 198 200 196 194 193 192 193 194 194 190 184 180 179 189 198 183 160 175 182 188 202 188 167 178 179 178 179 178 186 199 204 199 184 170 155 157 163 158 159 166 170 175 181 189 202 170 111 114 138 159 158 160 169 177 185 195 209 222 231 235 238 248 255 255 257 259 256 256 258 253 251 256 258 253 245 238 234 228 224 227 232 236 240 243 249
192 196 195 191 189 189 190 190 193 197 197 190 180 176 183 191 187 174 175 180 189 203 179 165 170 165 166 170 171 183 193 194 193 180 168 159 156 159 161 166 174 177 179 178 183 200 196 159 151 159 174 175 174 179 184 190 199 212 227 238 243 245 250 258 265 268 269 264 260 262 262 258 257 257 252 241 234 233 227 222 225 231 238 243 247 252
197 194 189 186 186 187 193 194 196 199 201 198 187 183 185 184 185 177 173 182 170 157 157 160 156 145 154 164 165 178 183 180 186 182 173 168 164 166 170 175 180 181 183 182 187 203 210 199 187 180 180 186 189 190 193 195 203 216 230 242 249 252 252 260 268 271 275 274 267 265 266 264 259 256 252 240 231 232 229 222 221 225 234 242 245 249
198 193 186 185 186 190 197 197 199 202 202 204 198 189 186 182 178 176 174 162 146 145 157 157 140 122 146 155 160 171 175 173 180 182 178 176 174 176 179 180 182 185 188 190 197 209 214 210 204 193 189 195 196 197 202 204 211 224 236 251 260 263 262 263 267 269 273 275 272 268 268 268 264 258 252 242 232 230 228 223 220 222 228 235 238 241
193 190 187 188 192 195 198 199 202 203 201 207 205 194 187 181 179 181 174 156 149 156 169 165 143 130 142 147 155 162 170 172 177 181 179 179 182 186 191 192 191 191 192 197 207 215 216 214 210 202 201 207 204 205 215 218 223 233 239 250 259 261 264 265 266 269 272 274 274 271 270 268 266 261 253 241 229 226 226 223 221 222 223 227 232 234
190 185 186 191 196 198 199 200 201 203 204 208 206 200 194 183 181 185 173 163 160 158 171 181 164 143 136 145 153 158 167 171 173 175 176 177 183 189 195 200 199 195 196 203 214 220 222 224 224 220 219 220 216 217 226 228 231 238 242 248 254 253 257 261 264 268 272 276 277 275 272 267 264 261 251 236 226 224 225 220 216 219 218 219 227 232
186 185 189 193 197 200 202 202 203 204 206 208 208 206 200 188 185 190 184 176 168 153 162 182 168 144 132 148 148 154 165 168 167 164 165 169 175 183 190 195 198 199 203 210 219 226 230 235 237 238 238 236 230 224 230 233 237 249 257 256 255 255 255 255 258 264 270 274 277 279 278 271 264 257 245 232 225 227 227 220 216 220 221 217 220 225
189 194 198 199 201 204 203 204 206 207 209 208 209 209 203 199 198 199 202 195 183 169 158 169 165 146 138 154 145 149 165 165 161 158 160 163 166 175 183 190 196 201 207 213 220 227 233 238 241 244 248 248 235 229 243 245 244 259 263 256 253 257 260 257 254 259 265 270 273 276 278 277 266 251 236 222 222 228 227 222 223 232 238 235 231 226
198 199 201 203 205 206 203 205 207 208 211 209 207 204 197 200 205 205 207 201 193 175 157 171 170 149 147 168 153 153 165 161 155 158 163 165 169 174 179 185 191 198 206 213 221 228 233 238 243 246 250 250 238 237 247 240 240 255 257 252 252 256 262 265 260 260 264 268 270 269 271 276 265 245 230 216 220 229 225 226 235 243 248 252 251 242
200 199 202 204 201 198 201 205 205 205 206 206 203 195 185 183 191 199 203 199 198 168 147 166 166 149 149 175 165 161 162 156 152 159 166 168 175 180 182 188 193 200 209 217 224 231 236 241 245 248 250 247 239 241 237 226 232 247 249 248 252 257 264 267 263 262 264 267 269 268 270 275 267 245 230 221 229 238 235 241 245 245 249 255 259 253
186 190 196 200 199 198 202 201 199 201 200 198 196 190 180 164 168 183 197 194 191 153 138 148 153 137 131 162 168 164 155 152 156 161 166 173 179 182 187 192 198 206 216 228 236 240 245 248 250 251 250 244 241 243 238 229 233 242 245 246 251 259 267 268 264 260 261 266 271 272 272 276 276 263 241 229 235 239 240 249 252 248 250 255 258 250
182 183 183 183 189 194 199 194 190 193 194 191 190 188 183 163 161 173 169 169 158 144 140 145 147 124 124 157 167 163 158 161 165 164 168 175 181 187 193 197 204 212 223 236 244 251 256 258 260 258 255 251 248 247 243 238 238 243 248 249 253 264 272 274 271 264 262 264 268 269 268 267 269 267 250 236 237 238 241 251 256 254 248 247 251 242
188 192 185 178 181 187 189 193 194 194 192 190 189 192 190 181 170 162 158 162 121 122 133 136 143 135 140 160 162 160 166 167 165 168 172 178 186 194 200 206 213 217 225 233 240 252 259 262 265 264 265 264 261 260 258 253 251 253 257 259 264 272 277 279 277 272 268 266 263 261 261 259 260 260 248 238 237 238 242 249 258 263 252 241 247 240
191 200 190 179 180 185 182 184 193 193 191 188 188 195 198 190 176 152 139 152 135 121 119 106 108 135 150 162 158 161 177 168 165 174 177 183 192 196 204 210 217 223 228 237 246 256 263 268 272 272 273 274 274 276 275 271 268 265 268 272 275 278 280 281 280 277 273 270 265 260 258 258 258 256 249 240 238 242 246 252 265 274 264 247 250 245
182 192 188 179 174 180 181 178 182 188 190 187 187 195 196 188 182 163 131 136 145 138 121 101 118 140 152 163 160 176 198 179 174 183 184 192 198 201 211 214 221 231 234 244 250 254 262 267 271 272 273 274 274 277 277 275 274 274 275 279 281 284 286 287 287 285 282 279 275 267 261 259 257 255 253 248 246 248 252 259 271 277 266 255 256 251
169 169 180 180 170 172 183 183 181 189 195 191 189 190 185 180 189 176 139 121 141 126 120 133 154 164 167 166 165 186 214 197 186 190 192 202 210 215 224 224 231 237 238 248 251 253 258 260 265 268 268 270 269 271 274 274 276 277 279 281 284 287 289 292 294 293 291 289 284 276 266 261 258 256 256 255 254 255 257 264 270 262 248 249 248 244
170 157 168 179 175 174 184 187 188 194 201 199 192 186 183 183 184 169 150 154 145 106 120 144 174 190 190 181 175 187 212 204 191 192 198 206 215 222 228 232 239 242 243 252 255 259 260 260 265 268 269 271 271 274 280 282 282 282 284 286 288 291 294 298 303 303 304 304 299 285 268 260 256 254 256 257 259 260 259 264 265 247 239 248 247 244
174 160 158 180 187 185 185 186 191 191 190 193 190 185 188 193 185 171 162 165 153 129 145 148 180 212 202 194 187 189 207 207 193 190 200 207 212 221 232 239 243 247 252 258 262 263 261 260 262 266 275 279 280 287 292 296 296 291 292 295 297 302 306 309 311 313 314 316 315 298 269 256 251 249 255 257 258 263 261 264 267 250 242 254 256 254
174 167 151 173 186 189 189 191 195 190 180 181 185 184 184 181 174 171 161 157 158 147 143 144 181 213 199 200 199 193 204 209 193 188 202 210 217 224 233 242 246 249 253 258 262 257 252 255 260 270 284 288 287 291 292 295 297 296 299 301 303 307 308 310 312 315 317 321 325 313 273 252 244 241 248 250 250 262 262 262 268 257 249 259 261 256
162 164 154 159 170 180 188 192 194 190 183 183 185 184 184 177 169 167 152 150 161 156 158 159 176 204 194 199 204 199 209 215 201 198 213 216 224 231 234 242 246 243 244 248 249 247 246 255 268 278 286 289 289 289 292 295 296 298 301 302 304 306 307 311 315 319 321 323 330 326 287 253 242 236 243 247 245 252 254 253 258 255 254 256 256 254
145 145 148 147 157 175 186 187 185 184 183 185 188 189 192 194 188 183 179 169 156 145 156 159 150 191 191 198 207 206 212 220 213 214 223 221 224 231 231 230 233 234 236 239 242 244 250 261 274 285 289 290 290 291 296 299 298 300 302 303 308 311 313 319 323 327 328 325 330 333 307 248 239 237 241 245 244 246 249 250 250 252 256 255 252 252
158 138 133 125 127 151 167 175 177 180 181 182 186 191 194 196 196 198 198 187 168 148 150 155 132 181 188 197 208 208 211 220 222 219 224 226 223 222 215 205 216 229 232 238 246 251 258 270 280 289 295 296 297 298 300 302 304 307 310 312 316 319 322 326 330 333 335 331 329 334 328 250 228 233 237 242 244 249 255 255 252 251 253 253 252 252
172 152 138 121 105 121 139 160 172 177 182 184 186 190 192 191 192 197 196 186 174 163 165 168 154 178 188 196 205 210 212 220 225 223 228 234 226 217 212 206 216 229 233 242 254 259 264 274 281 288 294 297 300 303 303 308 312 315 316 317 321 325 326 328 331 334 337 336 331 330 329 319 279 227 240 251 251 254 260 261 259 255 250 251 254 255
176 164 157 145 135 138 137 155 167 171 178 184 186 188 190 191 193 196 185 174 173 173 174 176 171 177 186 194 203 209 212 218 222 223 230 238 232 229 233 225 222 230 237 242 250 260 267 273 279 285 292 296 300 304 307 314 319 320 320 320 323 327 328 328 330 333 337 339 334 327 320 310 291 264 262 267 263 261 263 264 262 257 252 252 254 256
182 169 168 166 152 145 149 159 166 170 174 179 183 187 190 192 194 198 189 179 182 181 180 190 199 186 184 192 202 207 210 215 219 219 227 234 233 238 249 248 238 243 249 250 251 258 265 273 281 287 293 297 300 302 305 312 318 319 320 321 323 327 330 330 331 333 336 338 337 331 320 305 290 274 267 265 262 261 261 261 256 253 252 252 253 254
188 170 163 168 152 137 145 156 163 172 175 177 181 185 190 192 193 197 197 191 187 184 188 200 206 197 188 192 200 205 207 211 215 220 228 232 232 239 248 253 254 256 266 271 267 263 268 281 293 300 303 303 302 303 306 310 313 315 319 321 322 325 328 330 330 332 333 334 335 336 332 323 310 295 283 275 267 260 255 253 251 248 246 248 251 253
191 174 160 164 152 135 141 150 157 169 175 177 180 183 187 191 195 199 205 204 196 197 209 206 202 199 193 194 200 204 204 205 208 214 221 226 232 240 248 255 256 257 271 281 274 264 272 293 311 314 311 308 308 308 310 312 313 314 317 320 322 324 327 328 327 329 331 330 330 333 335 333 327 320 312 301 289 275 259 250 247 244 242 244 247 249
187 176 166 167 158 144 147 149 150 163 171 170 173 178 184 190 194 198 203 208 205 207 217 213 205 203 198 198 201 199 196 197 202 210 216 217 223 234 245 260 272 278 282 280 274 270 275 293 317 323 318 315 316 315 314 315 316 315 315 318 321 322 324 325 325 325 327 327 326 327 329 331 331 329 326 319 311 301 282 262 250 244 241 240 240 240
183 174 166 169 161 147 152 156 152 160 169 166 165 171 179 188 194 196 200 204 205 208 214 213 208 206 202 200 199 193 191 196 202 209 214 213 220 233 243 261 286 298 285 256 250 258 267 276 296 318 318 316 317 316 316 319 320 318 317 317 318 319 320 322 322 322 323 323 322 322 324 327 328 327 326 322 318 312 300 281 263 248 241 239 239 238
184 173 165 168 161 143 149 160 157 162 176 174 167 168 172 181 189 195 199 201 204 211 213 206 202 204 204 201 198 195 195 199 205 212 217 220 228 239 243 254 286 295 280 265 255 252 263 268 270 285 298 306 312 313 314 317 319 319 317 316 315 315 318 319 320 320 320 320 320 319 320 322 323 323 322 320 319 318 311 295 274 255 243 240 240 240
181 176 170 169 160 143 148 157 156 159 169 172 170 170 171 175 183 193 200 201 202 207 210 206 203 206 208 203 199 198 198 203 210 216 218 219 228 239 244 255 280 283 277 280 282 278 280 279 272 270 274 282 296 306 309 311 314 315 314 314 315 316 317 319 319 319 320 320 319 318 317 319 320 321 321 321 320 319 318 308 283 261 250 243 241 241
168 176 176 172 160 148 148 150 153 157 161 174 183 182 179 180 184 191 199 204 203 199 199 204 204 204 204 201 199 201 204 208 213 212 208 210 220 231 234 245 265 266 266 283 291 293 299 300 293 284 276 273 282 297 308 313 316 317 316 315 315 316 317 318 318 317 318 319 319 319 320 319 319 319 319 321 322 320 320 316 295 266 254 247 243 241
161 167 173 172 161 153 149 147 152 160 161 175 187 190 186 187 191 194 198 203 203 196 193 197 196 194 196 193 192 197 200 203 207 208 208 212 216 217 222 237 250 253 266 282 285 289 298 304 305 303 295 286 286 297 308 314 317 318 317 315 314 314 316 317 318 317 317 316 316 317 320 321 319 318 318 320 322 322 321 319 306 276 256 252 251 244
166 168 168 161 155 154 151 148 158 169 164 177 191 194 188 187 190 194 193 192 196 195 196 199 190 183 186 185 185 188 192 197 205 209 208 209 205 202 215 240 252 264 278 281 281 287 294 299 302 303 303 301 296 295 298 302 308 314 318 318 314 313 315 318 320 320 318 316 313 312 316 319 320 319 319 320 321 321 320 318 310 289 262 253 254 245
170 179 174 160 153 159 153 132 121 141 170 193 198 195 197 196 195 198 190 184 197 198 195 198 182 174 178 179 179 181 186 195 205 207 204 202 198 204 239 259 262 270 276 276 280 284 286 289 292 296 301 302 298 295 294 296 302 310 317 321 318 315 315 319 323 324 323 320 315 311 312 316 319 320 320 321 321 320 320 316 307 291 269 254 252 247
168 185 187 175 167 169 159 133 115 143 198 210 201 198 205 205 206 212 196 190 206 201 177 170 173 173 177 181 184 188 193 198 204 206 205 206 212 235 255 257 256 263 269 275 282 285 286 288 290 296 301 300 298 298 297 300 304 306 311 316 316 313 312 315 319 322 323 322 318 314 314 315 317 320 320 321 322 321 322 319 304 287 273 259 249 243
166 178 190 189 181 176 171 155 149 175 197 202 200 203 207 207 210 208 186 189 209 205 178 166 171 177 181 184 187 193 198 202 210 218 220 221 230 237 236 231 245 270 279 282 285 286 287 291 295 300 303 303 303 303 302 303 304 304 307 310 311 311 310 310 312 314 315 318 320 320 319 318 317 317 317 320 323 323 324 324 304 280 271 259 246 246
170 173 180 185 182 182 180 169 163 179 178 184 192 197 200 202 200 191 182 191 200 197 182 174 177 180 180 176 173 177 186 200 212 220 224 226 226 221 217 229 261 278 282 284 285 285 286 290 295 299 302 305 305 303 302 302 302 303 306 309 310 313 314 313 313 313 314 317 320 322 323 320 316 314 314 317 322 326 329 330 316 284 269 263 260 265
169 168 169 171 173 179 181 170 156 178 180 180 187 190 189 189 185 187 196 188 185 185 183 180 180 176 173 175 182 191 202 212 215 217 222 226 227 222 224 248 272 280 286 291 293 294 295 296 296 298 303 307 307 306 305 305 307 309 311 311 313 316 319 321 321 321 321 322 323 324 324 321 316 312 311 312 320 332 341 340 331 309 294 300 294 277
161 156 152 157 163 173 178 167 144 159 180 183 186 184 179 175 176 187 186 171 178 186 186 186 188 188 187 194 204 213 221 222 215 214 214 218 227 235 244 262 277 287 295 300 301 303 304 304 304 306 308 310 312 315 316 316 315 316 316 317 319 323 327 330 328 325 324 324 325 327 327 325 321 316 312 312 321 338 352 346 331 322 314 319 329 312
168 157 152 157 159 162 168 163 152 174 183 181 179 177 172 165 164 171 160 155 174 184 188 192 195 196 199 202 205 214 223 216 204 203 209 218 229 242 255 268 280 286 291 296 301 304 305 306 309 311 311 313 316 318 318 317 316 316 318 322 327 331 334 332 328 326 325 326 328 331 331 330 328 323 322 325 329 337 350 348 330 318 313 310 315 317
176 170 167 171 171 167 170 172 172 171 174 175 172 170 169 164 154 154 151 147 167 180 189 199 200 199 203 206 209 215 214 203 199 202 210 222 231 239 248 257 270 281 288 298 308 312 310 310 314 319 323 327 329 331 331 329 327 328 330 332 334 334 333 329 327 328 329 329 330 332 333 334 335 334 336 342 339 335 341 344 335 323 317 312 308 307
182 186 187 190 192 189 184 183 176 158 162 170 166 164 170 170 158 154 155 151 157 169 177 183 188 192 197 200 205 207 196 190 198 200 197 202 210 215 220 234 262 284 297 311 320 319 317 320 326 331 334 338 344 350 352 351 349 348 346 345 342 337 332 329 330 332 333 335 333 330 332 339 343 344 343 342 342 336 332 335 337 328 316 307 305 307
190 194 198 200 198 196 189 180 174 162 161 167 165 164 171 172 166 163 159 150 149 158 164 169 177 185 189 186 189 194 189 184 187 182 169 167 172 175 183 254 298 308 318 323 322 321 325 332 337 339 341 345 350 352 352 351 352 349 348 349 348 346 344 342 341 342 342 342 338 333 331 334 338 340 336 332 335 335 326 325 331 328 317 306 300 301
192 193 196 196 194 192 184 177 175 168 164 166 166 166 168 167 168 167 157 149 150 154 157 161 166 174 176 168 160 168 175 169 164 166 168 169 178 212 277 303 311 320 330 332 331 334 341 349 353 354 356 356 355 354 353 352 351 349 348 348 347 348 352 351 348 348 346 344 342 340 335 329 327 331 331 326 326 328 324 321 321 318 312 306 299 292
188 190 190 190 191 189 184 180 175 167 162 162 162 162 160 159 164 166 157 154 159 158 154 154 156 162 169 167 161 168 177 175 174 180 187 195 229 264 286 313 339 3 12 13 16 16 15 15 13 10 9 7 7 7 5 4 2 359 357 356 353 352 354 353 351 351 350 346 344 344 342 337 330 329 328 324 319 318 316 312 309 306 303 300 297 291
189 192 191 191 191 188 184 180 173 166 161 157 152 153 153 155 168 171 161 156 161 163 164 168 168 167 171 175 176 179 182 182 178 173 164 152 134 113 95 75 61 52 42 37 35 31 27 25 22 19 16 14 12 13 12 11 11 9 6 5 4 1 359 357 357 357 356 352 347 345 345 343 339 333 327 322 319 316 311 304 300 299 298 296 293 290
191 196 195 195 197 195 192 185 177 172 166 157 152 157 162 164 172 171 160 155 157 160 165 173 171 165 164 166 163 155 148 148 144 134 124 117 109 99 90 80 71 62 53 46 41 33 28 26 23 20 17 13 12 11 11 11 11 11 9 8 9 7 4 3 5 4 2 358 354 351 350 350 348 345 338 330 325 323 320 313 307 302 299 296 293 292
188 189 183 183 192 197 192 181 174 171 165 156 157 164 164 158 158 159 154 153 156 154 150 151 156 155 153 150 144 137 132 130 125 119 114 111 107 101 94 86 78 71 63 54 46 40 34 30 27 22 19 16 14 12 11 10 9 10 9 9 10 10 8 7 9 9 7 5 2 360 359 357 356 354 352 349 345 339 333 328 323 319 315 309 302 297
Height
3082 3084 3084 3085 3088 3092 3096 3099 3103 3106 3108 3110 3112 3114 3116 3118 3120 3122 3123 3124 3125 3125 3126 3127 3128 3131 3133 3133 3134 3135 3136 3137 3137 3138 3138 3138 3139 3140 3142 3143 3144 3145 3145 3146 3147 3149 3150 3150 3150 3150 3150 3150 3151 3151 3151 3151 3151 3151 3151 3151 3151 3151 3150 3150 3150 3150 3150 3149 3149 3149 3148 3146 3146 3147 3147 3148 3149 3150 3151 3153 3155 3156 3158 3159 3159 3160
3081 3081 3082 3085 3090 3093 3097 3099 3102 3105 3107 3109 3111 3113 3115 3118 3120 3121 3122 3123 3123 3123 3124 3125 3128 3130 3131 3132 3133 3134 3135 3136 3136 3136 3137 3137 3137 3138 3140 3141 3142 3143 3144 3145 3146 3147 3149 3150 3150 3150 3150 3150 3150 3150 3150 3150 3150 3150 3150 3150 3150 3150 3149 3149 3148 3148 3148 3147 3146 3145 3145 3144 3144 3145 3146 3147 3147 3149 3150 3151 3153 3155 3157 3157 3157 3159
3078 3079 3082 3087 3091 3093 3096 3099 3101 3104 3106 3108 3110 3112 3114 3116 3119 3120 3121 3121 3121 3121 3122 3124 3126 3128 3129 3130 3132 3133 3134 3135 3135 3136 3136 3136 3136 3137 3139 3140 3141 3142 3143 3144 3145 3146 3147 3149 3150 3150 3150 3149 3149 3149 3149 3149 3149 3149 3149 3150 3149 3149 3148 3147 3147 3146 3145 3145 3143 3142 3142 3143 3143 3143 3143 3144 3145 3146 3148 3149 3150 3152 3154 3155 3155 3157
3075 3078 3083 3087 3090 3093 3095 3098 3100 3102 3105 3107 3109 3111 3113 3115 3117 3118 3119 3119 3119 3119 3120 3123 3125 3126 3128 3129 3131 3132 3133 3134 3134 3135 3135 3135 3136 3137 3138 3139 3140 3141 3142 3143 3144 3145 3146 3147 3148 3149 3148 3148 3148 3148 3148 3149 3149 3148 3148 3148 3148 3147 3146 3145 3145 3144 3143 3143 3141 3139 3140 3141 3141 3141 3141 3141 3141 3143 3146 3147 3148 3150 3151 3152 3153 3155
3075 3079 3084 3087 3089 3092 3094 3096 3098 3100 3103 3105 3108 3109 3112 3114 3115 3117 3118 3118 3118 3118 3120 3122 3124 3126 3127 3129 3130 3131 3132 3133 3133 3134 3135 3135 3135 3136 3137 3138 3140 3141 3142 3143 3143 3144 3145 3146 3146 3146 3147 3147 3146 3147 3147 3147 3147 3147 3146 3146 3146 3145 3145 3144 3144 3143 3142 3141 3139 3138 3138 3138 3138 3138 3138 3138 3139 3140 3143 3144 3145 3146 3147 3149 3151 3153
3076 3079 3083 3085 3088 3090 3092 3094 3096 3098 3101 3104 3106 3108 3111 3113 3114 3116 3116 3116 3117 3118 3119 3120 3122 3126 3127 3127 3129 3130 3131 3132 3132 3133 3134 3134 3135 3136 3137 3138 3139 3140 3141 3142 3143 3143 3143 3143 3143 3144 3144 3144 3144 3145 3146 3147 3147 3146 3146 3145 3145 3145 3144 3143 3142 3142 3141 3139 3138 3137 3136 3136 3136 3135 3135 3136 3137 3138 3140 3141 3141 3141 3144 3146 3149 3151
3076 3079 3082 3084 3086 3088 3090 3092 3094 3097 3101 3103 3105 3107 3110 3112 3113 3114 3115 3116 3116 3117 3118 3118 3120 3125 3127 3127 3128 3129 3130 3131 3131 3132 3132 3133 3134 3135 3136 3137 3138 3139 3140 3141 3142 3142 3142 3142 3142 3142 3142 3142 3143 3145 3146 3146 3146 3146 3145 3144 3144 3143 3143 3143 3142 3141 3139 3138 3136 3135 3134 3133 3132 3132 3132 3133 3134 3136 3137 3139 3139 3139 3141 3143 3146 3148
3074 3077 3080 3082 3084 3086 3088 3090 3093 3096 3099 3101 3104 3107 3109 3110 3112 3113 3113 3114 3115 3115 3117 3118 3119 3123 3126 3127 3127 3128 3129 3130 3130 3131 3131 3132 3133 3134 3135 3136 3137 3138 3139 3140 3140 3141 3141 3141 3140 3140 3141 3141 3143 3144 3145 3145 3144 3143 3143 3143 3142 3141 3141 3141 3141 3140 3138 3137 3135 3133 3131 3130 3129 3129 3130 3130 3132 3134 3135 3137 3138 3138 3138 3139 3142 3145
3072 3076 3077 3080 3082 3083 3085 3088 3092 3095 3098 3101 3103 3106 3108 3110 3111 3111 3112 3113 3114 3115 3116 3118 3118 3121 3125 3126 3126 3128 3129 3129 3130 3130 3130 3131 3132 3133 3134 3135 3136 3137 3138 3138 3139 3139 3139 3140 3140 3140 3140 3141 3142 3143 3143 3142 3142 3143 3143 3142 3141 3140 3139 3139 3139 3139 3138 3137 3135 3132 3130 3128 3127 3127 3128 3129 3130 3132 3133 3135 3137 3138 3138 3137 3139 3142
3072 3075 3077 3079 3080 3082 3085 3089 3091 3094 3097 3100 3103 3105 3107 3108 3109 3110 3111 3112 3113 3113 3115 3116 3117 3119 3124 3126 3125 3127 3128 3128 3129 3129 3129 3130 3131 3132 3133 3134 3135 3135 3136 3137 3137 3137 3138 3138 3138 3139 3140 3141 3142 3142 3142 3141 3142 3142 3140 3140 3139 3139 3138 3138 3137 3137 3137 3136 3134 3132 3129 3127 3126 3126 3126 3127 3128 3130 3132 3134 3136 3138 3139 3139 3139 3139
3071 3074 3076 3077 3079 3082 3085 3088 3090 3094 3096 3099 3101 3103 3105 3107 3108 3109 3109 3110 3111 3112 3113 3115 3116 3117 3121 3124 3125 3126 3127 3128 3127 3128 3128 3129 3130 3131 3132 3133 3134 3134 3135 3135 3136 3136 3136 3137 3137 3138 3138 3140 3141 3141 3140 3140 3140 3139 3138 3137 3137 3137 3137 3136 3136 3136 3135 3134 3133 3131 3129 3127 3126 3126 3126 3126 3127 3129 3131 3132 3134 3136 3137 3138 3139 3140
3070 3072 3073 3074 3077 3081 3083 3085 3088 3091 3094 3096 3098 3100 3103 3105 3107 3108 3108 3109 3109 3110 3112 3114 3115 3116 3119 3122 3124 3125 3126 3126 3126 3127 3127 3128 3129 3130 3131 3132 3133 3133 3134 3135 3135 3135 3135 3135 3136 3136 3137 3138 3139 3139 3139 3138 3138 3137 3136 3136 3136 3135 3135 3135 3135 3135 3134 3133 3132 3131 3130 3129 3128 3127 3127 3127 3128 3129 3130 3131 3132 3134 3135 3136 3137 3139
3068 3070 3071 3073 3076 3078 3080 3082 3086 3088 3091 3093 3095 3097 3100 3102 3105 3107 3106 3107 3107 3108 3111 3112 3113 3116 3118 3121 3123 3124 3125 3125 3125 3126 3127 3128 3129 3130 3130 3131 3132 3132 3133 3133 3134 3134 3134 3134 3135 3135 3135 3136 3136 3136 3136 3136 3136 3135 3135 3135 3134 3134 3133 3132 3132 3132 3132 3132 3132 3132 3132 3131 3130 3130 3130 3129 3129 3130 3130 3130 3131 3132 3133 3134 3135 3136
3067 3069 3070 3071 3073 3075 3076 3078 3081 3083 3086 3088 3091 3093 3096 3097 3101 3105 3105 3106 3106 3107 3110 3111 3112 3116 3119 3121 3122 3123 3124 3124 3124 3125 3126 3127 3128 3129 3129 3130 3130 3131 3131 3132 3132 3133 3133 3133 3133 3133 3133 3134 3134 3134 3134 3134 3134 3134 3134 3134 3133 3133 3132 3131 3130 3130 3130 3130 3131 3131 3130 3129 3129 3130 3131 3130 3129 3130 3130 3129 3129 3130 3131 3132 3132 3134
3065 3066 3066 3067 3070 3071 3074 3076 3078 3081 3084 3087 3089 3092 3093 3094 3097 3100 3102 3103 3104 3106 3108 3110 3111 3115 3118 3120 3121 3123 3123 3123 3123 3124 3125 3126 3127 3128 3128 3129 3129 3130 3130 3131 3131 3131 3132 3132 3132 3132 3132 3132 3131 3131 3131 3132 3131 3131 3132 3132 3131 3131 3130 3129 3128 3128 3128 3128 3128 3128 3127 3126 3126 3127 3128 3128 3127 3127 3127 3127 3127 3128 3129 3130 3131 3132
3062 3063 3064 3066 3068 3070 3073 3076 3078 3082 3084 3086 3089 3091 3092 3093 3095 3098 3100 3102 3103 3106 3109 3110 3112 3115 3117 3119 3121 3122 3122 3122 3122 3123 3124 3125 3126 3127 3127 3128 3128 3129 3129 3129 3130 3130 3130 3131 3130 3130 3130 3130 3129 3129 3129 3129 3129 3129 3129 3129 3128 3128 3127 3127 3126 3125 3125 3125 3125 3125 3124 3124 3125 3124 3124 3124 3124 3125 3125 3125 3127 3128 3128 3128 3129 3130
3061 3062 3064 3066 3068 3070 3073 3075 3077 3079 3081 3084 3086 3088 3090 3093 3095 3097 3100 3103 3103 3105 3111 3113 3113 3115 3117 3119 3120 3121 3120 3120 3121 3122 3122 3123 3124 3125 3126 3127 3127 3127 3128 3128 3129 3129 3129 3129 3129 3129 3128 3128 3128 3127 3127 3127 3126 3126 3126 3126 3126 3125 3125 3124 3123 3123 3122 3122 3122 3122 3122 3123 3123 3122 3122 3122 3123 3124 3125 3125 3127 3128 3127 3127 3126 3128
3058 3060 3062 3065 3067 3069 3071 3074 3076 3078 3080 3081 3082 3086 3089 3093 3094 3094 3098 3102 3103 3106 3112 3114 3113 3115 3116 3117 3119 3119 3119 3119 3120 3121 3122 3123 3123 3124 3125 3125 3126 3126 3127 3127 3127 3127 3128 3127 3127 3127 3127 3127 3126 3126 3125 3125 3124 3124 3124 3124 3123 3123 3123 3122 3122 3120 3120 3120 3119 3119 3119 3119 3120 3120 3120 3121 3122 3123 3124 3125 3126 3126 3125 3125 3124 3124
3057 3059 3061 3064 3066 3067 3069 3072 3074 3076 3078 3080 3082 3085 3088 3089 3091 3092 3095 3099 3101 3108 3113 3114 3114 3114 3114 3114 3115 3117 3116 3116 3118 3120 3121 3122 3122 3123 3124 3124 3125 3125 3125 3125 3125 3126 3126 3126 3126 3126 3125 3125 3125 3124 3124 3123 3123 3122 3122 3122 3122 3122 3121 3121 3120 3119 3117 3116 3115 3114 3114 3115 3116 3117 3118 3119 3119 3120 3121 3123 3123 3123 3123 3123 3122 3123
3055 3057 3060 3062 3064 3066 3068 3069 3071 3073 3076 3079 3082 3085 3086 3087 3088 3090 3093 3094 3098 3107 3112 3113 3115 3113 3111 3112 3113 3114 3115 3115 3117 3119 3120 3121 3121 3122 3123 3123 3124 3124 3124 3124 3124 3124 3125 3124 3125 3125 3125 3124 3124 3123 3122 3122 3121 3121 3121 3121 3120 3120 3120 3119 3118 3117 3115 3113 3111 3109 3108 3109 3111 3113 3115 3117 3118 3119 3119 3120 3121 3121 3121 3121 3122 3123
3054 3055 3057 3060 3062 3064 3065 3067 3069 3071 3073 3075 3078 3081 3083 3085 3087 3089 3092 3093 3095 3102 3106 3110 3113 3111 3109 3111 3112 3113 3114 3114 3116 3118 3119 3120 3120 3121 3121 3122 3122 3123 3123 3123 3123 3124 3124 3124 3124 3124 3124 3123 3123 3122 3122 3121 3121 3120 3120 3120 3119 3119 3119 3118 3116 3115 3113 3111 3108 3105 3104 3105 3107 3110 3113 3115 3117 3118 3118 3118 3119 3120 3120 3120 3121 3122
3053 3054 3056 3058 3060 3062 3063 3065 3068 3070 3072 3073 3076 3079 3081 3083 3085 3088 3091 3093 3094 3097 3100 3105 3107 3107 3107 3109 3110 3112 3112 3113 3116 3117 3117 3118 3119 3119 3120 3121 3121 3122 3122 3122 3122 3123 3123 3123 3123 3123 3122 3122 3122 3121 3121 3120 3120 3119 3119 3118 3118 3118 3117 3116 3114 3112 3111 3108 3105 3103 3102 3103 3105 3107 3110 3113 3114 3115 3115 3115 3116 3117 3118 3118 3119 3119
3052 3053 3055 3057 3059 3061 3062 3065 3067 3069 3072 3074 3076 3079 3081 3082 3084 3086 3088 3092 3094 3096 3098 3100 3102 3104 3106 3107 3108 3109 3110 3112 3114 3115 3116 3117 3117 3118 3119 3120 3120 3120 3121 3121 3121 3121 3122 3122 3122 3122 3121 3121 3121 3121 3120 3119 3118 3118 3118 3117 3116 3116 3114 3113 3112 3110 3109 3107 3104 3102 3102 3102 3104 3106 3108 3110 3112 3113 3113 3114 3115 3116 3117 3117 3117 3116
3051 3053 3054 3056 3059 3061 3062 3064 3067 3069 3071 3073 3075 3077 3079 3081 3083 3084 3086 3088 3091 3094 3097 3099 3101 3103 3105 3105 3106 3108 3109 3111 3113 3114 3115 3115 3116 3117 3118 3119 3119 3119 3119 3119 3120 3120 3120 3120 3120 3120 3120 3120 3119 3119 3119 3118 3117 3116 3116 3115 3115 3114 3113 3112 3110 3109 3107 3105 3104 3103 3102 3103 3104 3105 3107 3109 3110 3111 3112 3112 3113 3113 3114 3115 3115 3114
3050 3052 3053 3055 3058 3061 3063 3064 3066 3068 3070 3071 3073 3076 3078 3080 3082 3084 3086 3087 3090 3092 3094 3096 3098 3101 3102 3103 3105 3106 3108 3110 3111 3113 3113 3114 3115 3116 3117 3117 3117 3117 3117 3118 3118 3119 3119 3119 3119 3119 3119 3118 3118 3117 3117 3116 3115 3115 3114 3114 3113 3113 3112 3111 3109 3108 3107 3105 3103 3103 3103 3103 3104 3105 3106 3108 3109 3110 3110 3109 3110 3110 3111 3112 3112 3112
3050 3052 3053 3054 3056 3059 3062 3062 3063 3066 3068 3070 3073 3075 3077 3079 3081 3083 3085 3086 3089 3091 3093 3094 3096 3098 3100 3102 3103 3104 3106 3108 3110 3111 3112 3113 3114 3115 3115 3116 3116 3116 3116 3116 3117 3117 3117 3117 3117 3117 3117 3117 3116 3116 3115 3114 3114 3113 3112 3112 3112 3112 3111 3110 3109 3107 3106 3105 3103 3102 3102 3103 3103 3104 3105 3106 3106 3107 3107 3107 3107 3108 3108 3109 3109 3110
3050 3051 3053 3055 3055 3057 3059 3061 3063 3066 3068 3070 3072 3074 3076 3078 3080 3082 3083 3085 3087 3089 3091 3092 3093 3095 3097 3099 3101 3102 3105 3107 3108 3109 3111 3112 3113 3114 3114 3115 3115 3114 3114 3115 3115 3116 3116 3116 3116 3116 3116 3115 3115 3114 3114 3113 3112 3111 3111 3110 3110 3110 3110 3109 3108 3107 3105 3104 3103 3102 3101 3101 3102 3102 3103 3103 3103 3104 3104 3104 3104 3105 3105 3106 3107 3107
3049 3051 3053 3055 3056 3057 3059 3061 3063 3066 3068 3070 3072 3074 3076 3077 3079 3081 3082 3084 3085 3088 3089 3090 3092 3093 3095 3097 3099 3100 3103 3105 3107 3108 3110 3111 3112 3113 3113 3113 3113 3114 3113 3114 3114 3114 3115 3115 3115 3115 3114 3114 3113 3113 3112 3111 3111 3110 3110 3109 3108 3108 3108 3108 3107 3106 3105 3103 3102 3101 3100 3100 3100 3100 3100 3099 3100 3100 3101 3101 3101 3101 3102 3102 3103 3104
3048 3051 3053 3055 3057 3058 3059 3061 3063 3065 3067 3069 3071 3073 3075 3077 3078 3080 3081 3083 3084 3086 3087 3089 3090 3092 3093 3095 3097 3099 3102 3104 3106 3108 3109 3110 3111 3111 3112 3112 3112 3113 3113 3113 3113 3113 3114 3114 3114 3114 3113 3113 3112 3111 3111 3110 3110 3109 3109 3108 3107 3107 3107 3106 3106 3105 3104 3103 3101 3100 3100 3099 3098 3098 3097 3097 3096 3096 3097 3097 3097 3097 3097 3098 3099 3100
3048 3050 3053 3055 3057 3058 3060 3062 3064 3066 3067 3069 3071 3072 3074 3076 3077 3079 3080 3082 3083 3085 3086 3087 3089 3090 3092 3094 3095 3098 3101 3103 3105 3107 3107 3109 3110 3110 3110 3110 3111 3112 3112 3112 3112 3112 3113 3113 3113 3112 3112 3111 3111 3110 3110 3109 3109 3108 3108 3107 3106 3106 3105 3105 3104 3104 3103 3102 3101 3099 3098 3098 3097 3096 3095 3095 3094 3093 3093 3093 3093 3093 3093 3094 3094 3096
3047 3049 3052 3054 3056 3058 3061 3062 3064 3066 3068 3069 3070 3072 3074 3075 3077 3078 3079 3080 3082 3083 3085 3086 3087 3089 3090 3092 3095 3097 3100 3102 3103 3105 3106 3107 3108 3109 3109 3110 3110 3111 3111 3111 3111 3111 3112 3112 3112 3111 3111 3110 3110 3109 3109 3108 3108 3107 3107 3106 3105 3104 3104 3103 3103 3103 3102 3101 3100 3098 3097 3096 3095 3095 3094 3093 3092 3090 3089 3089 3088 3089 3089 3089 3090 3092
3046 3048 3051 3053 3056 3058 3061 3062 3064 3066 3068 3069 3070 3071 3073 3074 3076 3077 3078 3080 3081 3082 3084 3085 3086 3087 3089 3091 3093 3096 3098 3100 3102 3103 3105 3106 3107 3107 3108 3109 3110 3110 3110 3110 3110 3110 3110 3110 3110 3110 3109 3109 3109 3108 3108 3107 3107 3106 3105 3105 3104 3103 3102 3102 3101 3101 3101 3100 3099 3098 3096 3095 3094 3092 3091 3090 3089 3088 3086 3085 3084 3084 3084 3086 3087 3088
3046 3048 3050 3052 3055 3058 3061 3062 3064 3066 3068 3070 3070 3071 3072 3074 3075 3077 3078 3079 3081 3082 3083 3084 3085 3086 3088 3090 3092 3094 3097 3099 3100 3102 3104 3105 3106 3106 3107 3108 3109 3109 3109 3109 3109 3109 3109 3109 3109 3109 3108 3108 3107 3107 3106 3106 3106 3105 3104 3103 3103 3102 3101 3100 3100 3099 3099 3098 3098 3096 3095 3094 3092 3090 3089 3087 3086 3085 3084 3082 3081 3080 3080 3082 3083 3084
3046 3048 3049 3051 3054 3058 3061 3062 3064 3066 3067 3069 3071 3071 3072 3073 3074 3076 3077 3079 3080 3081 3083 3084 3085 3087 3088 3090 3092 3094 3096 3097 3099 3101 3103 3104 3105 3106 3106 3107 3108 3108 3108 3108 3108 3108 3108 3108 3108 3107 3107 3106 3106 3105 3105 3105 3104 3104 3103 3102 3101 3100 3100 3099 3098 3097 3097 3096 3096 3095 3094 3093 3091 3089 3087 3085 3083 3082 3081 3079 3078 3077 3077 3078 3080 3080
3046 3047 3050 3051 3054 3057 3060 3062 3064 3066 3067 3069 3070 3071 3071 3072 3074 3075 3077 3078 3080 3081 3082 3083 3084 3086 3087 3089 3091 3093 3095 3097 3098 3100 3102 3103 3104 3105 3106 3106 3107 3107 3107 3107 3107 3107 3107 3107 3106 3106 3105 3105 3105 3104 3104 3103 3103 3102 3101 3101 3100 3099 3098 3097 3097 3096 3095 3094 3094 3093 3092 3091 3090 3088 3086 3083 3081 3079 3078 3077 3076 3075 3074 3075 3076 3077
3046 3047 3049 3052 3054 3057 3060 3061 3063 3066 3067 3068 3069 3070 3071 3072 3074 3075 3076 3078 3079 3080 3081 3082 3083 3085 3087 3089 3091 3093 3095 3097 3098 3099 3101 3102 3103 3104 3105 3106 3106 3107 3107 3107 3107 3106 3106 3106 3105 3105 3105 3104 3104 3104 3103 3102 3102 3101 3100 3099 3098 3097 3096 3096 3095 3094 3093 3092 3092 3091 3090 3089 3087 3086 3084 3082 3080 3078 3076 3075 3074 3073 3072 3072 3073 3074
3046 3047 3049 3051 3054 3057 3059 3061 3064 3066 3067 3067 3068 3070 3071 3072 3073 3074 3076 3077 3079 3080 3081 3082 3083 3085 3087 3089 3091 3093 3094 3096 3097 3099 3100 3101 3102 3103 3103 3104 3105 3106 3106 3106 3106 3106 3105 3105 3104 3104 3104 3103 3103 3102 3102 3101 3100 3100 3099 3098 3097 3096 3095 3094 3094 3093 3092 3091 3090 3088 3087 3086 3085 3084 3082 3081 3079 3077 3075 3073 3072 3071 3070 3071 3071 3071
3046 3048 3049 3050 3053 3055 3057 3060 3065 3067 3066 3066 3068 3069 3070 3071 3073 3074 3076 3077 3078 3080 3081 3083 3084 3086 3087 3089 3091 3092 3094 3095 3097 3098 3099 3100 3101 3101 3102 3103 3104 3104 3104 3104 3104 3104 3104 3103 3103 3103 3102 3102 3102 3101 3101 3100 3099 3098 3097 3097 3096 3094 3093 3092 3092 3091 3090 3089 3088 3087 3086 3085 3083 3082 3080 3079 3077 3075 3074 3072 3070 3069 3069 3069 3069 3069
3045 3047 3048 3050 3052 3054 3056 3058 3062 3064 3064 3065 3067 3068 3070 3071 3072 3074 3076 3077 3078 3079 3081 3083 3085 3086 3087 3089 3090 3092 3093 3095 3096 3097 3098 3099 3100 3100 3101 3102 3102 3103 3103 3103 3102 3102 3102 3102 3102 3101 3101 3101 3100 3100 3099 3098 3097 3097 3096 3095 3094 3092 3091 3090 3090 3089 3088 3087 3086 3085 3084 3083 3082 3080 3078 3077 3076 3074 3072 3071 3069 3068 3067 3066 3067 3067
3045 3046 3048 3050 3051 3053 3055 3057 3060 3061 3063 3064 3066 3067 3069 3071 3072 3074 3076 3076 3077 3079 3081 3083 3084 3086 3087 3088 3090 3091 3092 3094 3095 3096 3097 3098 3099 3099 3100 3101 3101 3101 3101 3101 3101 3101 3101 3101 3101 3100 3100 3099 3099 3098 3097 3096 3095 3095 3094 3093 3092 3090 3089 3088 3087 3086 3086 3085 3084 3083 3082 3081 3080 3079 3077 3076 3074 3072 3071 3069 3068 3067 3066 3066 3066 3066
3045 3046 3048 3050 3051 3053 3055 3057 3059 3061 3062 3063 3065 3067 3068 3070 3072 3074 3074 3074 3076 3078 3080 3082 3084 3085 3087 3088 3089 3090 3092 3093 3094 3095 3096 3097 3098 3098 3099 3099 3100 3100 3100 3100 3100 3100 3100 3100 3099 3099 3099 3098 3097 3096 3095 3094 3093 3093 3092 3091 3090 3089 3088 3087 3086 3085 3083 3083 3082 3081 3080 3079 3078 3077 3076 3074 3073 3071 3070 3069 3068 3067 3067 3066 3065 3065
3045 3047 3048 3050 3052 3053 3055 3057 3059 3061 3062 3063 3064 3066 3068 3070 3072 3073 3073 3074 3076 3078 3079 3082 3084 3085 3086 3088 3089 3090 3091 3092 3093 3094 3095 3096 3097 3097 3098 3098 3099 3099 3099 3099 3099 3098 3098 3098 3098 3097 3097 3096 3095 3094 3094 3093 3092 3091 3090 3089 3088 3087 3087 3086 3085 3083 3082 3081 3080 3079 3078 3077 3076 3075 3074 3073 3071 3070 3069 3068 3068 3067 3067 3066 3065 3065
3045 3047 3048 3050 3051 3053 3055 3057 3058 3059 3061 3062 3063 3066 3068 3070 3071 3072 3073 3075 3076 3078 3079 3081 3083 3084 3085 3086 3088 3089 3090 3091 3092 3093 3094 3095 3096 3096 3097 3097 3098 3098 3098 3098 3098 3098 3097 3097 3097 3096 3096 3095 3094 3093 3092 3091 3090 3089 3089 3088 3087 3086 3085 3085 3084 3082 3081 3080 3079 3078 3077 3076 3074 3073 3072 3071 3070 3069 3069 3068 3067 3067 3066 3066 3065 3066
3045 3046 3048 3049 3051 3052 3054 3056 3057 3058 3060 3061 3064 3066 3068 3070 3071 3072 3074 3075 3076 3078 3079 3081 3082 3083 3084 3086 3087 3088 3089 3090 3091 3092 3093 3094 3095 3095 3096 3096 3097 3097 3097 3097 3097 3097 3097 3097 3096 3095 3095 3094 3093 3092 3091 3090 3090 3089 3088 3087 3086 3085 3085 3084 3083 3081 3080 3079 3078 3077 3076 3075 3074 3072 3071 3070 3069 3068 3068 3068 3067 3066 3066 3065 3065 3065
3045 3046 3047 3049 3051 3052 3053 3055 3056 3058 3059 3061 3063 3066 3068 3069 3071 3072 3074 3075 3076 3077 3078 3080 3081 3083 3084 3085 3086 3087 3088 3089 3090 3091 3092 3093 3094 3095 3095 3096 3096 3097 3097 3097 3096 3096 3096 3096 3095 3095 3094 3094 3093 3092 3091 3090 3089 3088 3087 3086 3085 3084 3084 3083 3082 3081 3080 3078 3077 3076 3075 3074 3073 3072 3071 3070 3069 3068 3068 3067 3067 3066 3065 3064 3064 3063
3045 3046 3048 3049 3050 3052 3053 3055 3056 3058 3059 3061 3063 3065 3067 3069 3071 3072 3073 3075 3076 3077 3078 3080 3081 3083 3084 3085 3086 3087 3088 3089 3090 3091 3092 3092 3093 3094 3095 3096 3096 3096 3096 3096 3096 3096 3095 3095 3094 3094 3094 3093 3092 3091 3090 3089 3088 3087 3086 3085 3084 3084 3083 3082 3081 3080 3079 3078 3077 3075 3074 3073 3073 3072 3070 3070 3069 3068 3067 3067 3067 3066 3065 3064 3064 3063
3045 3046 3047 3048 3050 3051 3053 3054 3056 3057 3059 3061 3063 3065 3067 3069 3071 3072 3073 3075 3076 3077 3079 3080 3081 3083 3084 3085 3086 3087 3088 3089 3090 3091 3092 3093 3094 3094 3095 3095 3096 3096 3096 3096 3095 3095 3095 3094 3094 3094 3093 3092 3091 3090 3090 3089 3088 3086 3085 3084 3083 3083 3082 3081 3080 3079 3078 3077 3076 3075 3074 3073 3072 3071 3070 3069 3068 3068 3067 3066 3066 3066 3066 3065 3064 3063
3044 3045 3047 3048 3049 3051 3052 3054 3056 3057 3059 3061 3063 3065 3067 3069 3071 3072 3074 3075 3076 3078 3079 3080 3082 3083 3084 3085 3086 3087 3088 3089 3090 3091 3092 3093 3094 3094 3095 3095 3096 3096 3096 3096 3095 3095 3095 3095 3094 3094 3093 3092 3091 3090 3089 3088 3087 3086 3085 3084 3083 3082 3081 3080 3079 3078 3077 3076 3075 3074 3073 3072 3071 3070 3069 3068 3068 3067 3066 3065 3065 3065 3065 3064 3064 3063
3043 3044 3046 3047 3048 3050 3051 3053 3055 3057 3059 3061 3063 3065 3067 3069 3071 3072 3074 3075 3077 3078 3079 3080 3081 3083 3084 3085 3086 3087 3088 3089 3090 3091 3092 3093 3094 3094 3095 3095 3096 3096 3096 3096 3096 3096 3095 3095 3095 3094 3093 3092 3091 3090 3090 3089 3088 3087 3085 3084 3083 3082 3080 3079 3078 3077 3076 3076 3075 3074 3072 3071 3070 3070 3069 3068 3067 3066 3065 3065 3064 3064 3064 3063 3063 3063
3043 3044 3045 3046 3048 3049 3050 3052 3054 3056 3058 3060 3063 3065 3067 3069 3071 3072 3074 3075 3077 3078 3079 3080 3081 3082 3083 3085 3086 3087 3088 3089 3090 3091 3092 3093 3094 3095 3095 3096 3096 3096 3096 3096 3096 3096 3095 3095 3094 3094 3093 3092 3091 3091 3090 3089 3088 3087 3086 3085 3083 3082 3081 3080 3078 3077 3076 3075 3074 3073 3072 3071 3070 3069 3068 3067 3066 3065 3065 3064 3063 3063 3062 3062 3062 3061
3042 3043 3045 3046 3047 3049 3050 3052 3054 3056 3058 3060 3063 3065 3067 3069 3071 3072 3074 3075 3077 3078 3079 3080 3082 3082 3083 3085 3086 3088 3089 3090 3091 3092 3093 3094 3095 3095 3096 3096 3096 3096 3096 3096 3096 3096 3095 3095 3095 3094 3093 3093 3092 3091 3090 3089 3088 3087 3086 3085 3084 3083 3081 3080 3079 3078 3077 3076 3075 3073 3072 3071 3070 3069 3068 3067 3065 3064 3064 3063 3062 3062 3061 3061 3060 3060